| time (UTC) | temp F | wind direction | speed MPH | gust MPH | rain 1hr in | rain 24hr in | rain mn in | humidity % | barometer mb |
| 20260505164113 | 62 | 209 | 2.0 | 8.0 | 0.00 | 0.07 | 0.05 | 77 | 1007.8 |
| 20260505163113 | 62 | 239 | 3.0 | 10.0 | 0.00 | 0.07 | 0.05 | 77 | 1007.8 |
| 20260505162113 | 62 | 263 | 3.0 | 7.0 | 0.00 | 0.07 | 0.05 | 78 | 1007.7 |
| 20260505161113 | 62 | 261 | 1.0 | 6.0 | 0.00 | 0.07 | 0.05 | 80 | 1007.6 |
| 20260505153112 | 59 | 249 | 3.0 | 10.0 | 0.03 | 0.07 | 0.05 | 85 | 1007.8 |
| 20260505152112 | 58 | 243 | 3.0 | 8.0 | 0.04 | 0.07 | 0.05 | 86 | 1007.8 |
| 20260505151112 | 58 | 245 | 3.0 | 7.0 | 0.04 | 0.07 | 0.05 | 87 | 1007.9 |
| 20260505150112 | 59 | 254 | 1.0 | 5.0 | 0.04 | 0.07 | 0.05 | 87 | 1007.8 |
| 20260505140112 | 67 | 247 | 0.0 | 1.0 | 0.00 | 0.03 | 0.01 | 67 | 1007.3 |
| 20260505130111 | 65 | 360 | 0.0 | 1.0 | 0.00 | 0.03 | 0.01 | 73 | 1007.9 |
| 20260505124111 | 65 | 83 | 0.0 | 2.0 | 0.00 | 0.03 | 0.01 | 74 | 1008.0 |
| 20260505122110 | 63 | 234 | 1.0 | 3.0 | 0.00 | 0.03 | 0.01 | 76 | 1008.2 |
| 20260505120110 | 63 | 259 | 0.0 | 0.0 | 0.00 | 0.03 | 0.01 | 78 | 1008.4 |
| 20260505115110 | 62 | 248 | 0.0 | 1.0 | 0.00 | 0.03 | 0.01 | 78 | 1008.4 |
| 20260505114110 | 62 | 228 | 0.0 | 1.0 | 0.00 | 0.03 | 0.01 | 81 | 1008.5 |
| 20260505113110 | 62 | 271 | 0.0 | 1.0 | 0.00 | 0.03 | 0.01 | 80 | 1008.6 |
| 20260505112110 | 62 | 263 | 0.0 | 2.0 | 0.00 | 0.03 | 0.01 | 80 | 1008.7 |
| 20260505110110 | 62 | 256 | 0.0 | 0.0 | 0.00 | 0.03 | 0.01 | 81 | 1008.7 |
| 20260505101115 | 61 | 258 | 0.0 | 0.0 | 0.00 | 0.03 | 0.01 | 82 | 1008.8 |
| 20260505100114 | 60 | 258 | 0.0 | 1.0 | 0.00 | 0.03 | 0.01 | 82 | 1008.7 |
| 20260505095114 | 61 | 258 | 0.0 | 2.0 | 0.00 | 0.03 | 0.01 | 81 | 1008.8 |
| 20260505094114 | 60 | 254 | 0.0 | 0.0 | 0.00 | 0.03 | 0.01 | 83 | 1008.7 |
| 20260505092114 | 60 | 252 | 0.0 | 0.0 | 0.00 | 0.03 | 0.01 | 83 | 1008.9 |
| 20260505091114 | 60 | 252 | 0.0 | 0.0 | 0.00 | 0.03 | 0.01 | 84 | 1008.9 |
| 20260505085114 | 60 | 253 | 0.0 | 1.0 | 0.00 | 0.03 | 0.01 | 84 | 1009.1 |
| 20260505084113 | 60 | 62 | 0.0 | 1.0 | 0.00 | 0.03 | 0.01 | 84 | 1009.2 |
| 20260505083113 | 60 | 269 | 0.0 | 1.0 | 0.00 | 0.03 | 0.01 | 84 | 1009.3 |
| 20260505081113 | 60 | 265 | 0.0 | 0.0 | 0.00 | 0.03 | 0.01 | 84 | 1009.5 |
| 20260505080113 | 60 | 265 | 0.0 | 1.0 | 0.00 | 0.03 | 0.01 | 84 | 1009.5 |
| 20260505075113 | 59 | 265 | 0.0 | 1.0 | 0.00 | 0.03 | 0.01 | 85 | 1009.5 |
| 20260505074113 | 58 | 265 | 0.0 | 0.0 | 0.00 | 0.03 | 0.01 | 88 | 1009.7 |
| 20260505073113 | 57 | 265 | 0.0 | 2.0 | 0.00 | 0.03 | 0.01 | 88 | 1009.7 |
| 20260505070113 | 56 | 261 | 2.0 | 7.0 | 0.00 | 0.03 | 0.01 | 91 | 1009.9 |
| 20260505065112 | 55 | 261 | 1.0 | 3.0 | 0.00 | 0.03 | 0.01 | 91 | 1010.0 |
| 20260505064112 | 55 | 245 | 1.0 | 3.0 | 0.00 | 0.03 | 0.01 | 92 | 1010.0 |
| 20260505063112 | 55 | 249 | 0.0 | 1.0 | 0.00 | 0.03 | 0.01 | 92 | 1010.0 |
| 20260505062112 | 54 | 239 | 0.0 | 2.0 | 0.01 | 0.03 | 0.01 | 92 | 1010.1 |
| 20260505055112 | 54 | 239 | 0.0 | 1.0 | 0.01 | 0.03 | 0.01 | 93 | 1010.2 |
| 20260505054112 | 54 | 239 | 0.0 | 0.0 | 0.01 | 0.03 | 0.01 | 93 | 1010.2 |
| 20260505053112 | 54 | 276 | 0.0 | 1.0 | 0.01 | 0.03 | 0.01 | 93 | 1010.2 |
| 20260505052111 | 54 | 277 | 0.0 | 1.0 | 0.00 | 0.02 | 0.00 | 93 | 1010.1 |
| 20260505051111 | 54 | 279 | 0.0 | 1.0 | 0.00 | 0.02 | 0.00 | 93 | 1010.0 |
| 20260505050111 | 54 | 282 | 0.0 | 0.0 | 0.00 | 0.02 | 0.00 | 93 | 1010.1 |
| 20260505041111 | 53 | 282 | 0.0 | 0.0 | 0.00 | 0.02 | 0.00 | 93 | 1010.0 |
| 20260505040111 | 53 | 282 | 0.0 | 0.0 | 0.00 | 0.02 | 0.00 | 93 | 1010.1 |
| 20260505034111 | 53 | 282 | 0.0 | 0.0 | 0.00 | 0.02 | 0.00 | 93 | 1010.0 |
| 20260505032110 | 53 | 282 | 0.0 | 0.0 | 0.00 | 0.02 | 0.00 | 93 | 1009.9 |
| 20260505031110 | 53 | 282 | 0.0 | 0.0 | 0.00 | 0.02 | 0.00 | 93 | 1010.1 |
| 20260505030110 | 53 | 282 | 0.0 | 0.0 | 0.00 | 0.02 | 0.00 | 93 | 1010.3 |
| 20260505025110 | 53 | 282 | 0.0 | 0.0 | 0.00 | 0.02 | 0.00 | 93 | 1010.3 |
| 20260505024110 | 53 | 83 | 1.0 | 5.0 | 0.00 | 0.02 | 0.00 | 93 | 1010.3 |
| 20260505023110 | 53 | 75 | 0.0 | 0.0 | 0.00 | 0.02 | 0.00 | 93 | 1010.4 |
| 20260505022110 | 53 | 252 | 0.0 | 0.0 | 0.00 | 0.02 | 0.00 | 93 | 1010.6 |
| 20260505021110 | 53 | 252 | 0.0 | 0.0 | 0.00 | 0.02 | 0.00 | 93 | 1010.8 |
| 20260505020110 | 53 | 252 | 0.0 | 0.0 | 0.00 | 0.02 | 0.00 | 93 | 1010.8 |
| 20260505015110 | 53 | 252 | 0.0 | 0.0 | 0.00 | 0.02 | 0.00 | 93 | 1010.9 |
| 20260505014114 | 53 | 252 | 0.0 | 0.0 | 0.00 | 0.02 | 0.00 | 93 | 1011.0 |
| 20260505011114 | 53 | 252 | 0.0 | 0.0 | 0.00 | 0.02 | 0.00 | 93 | 1011.1 |
| 20260505005114 | 54 | 252 | 0.0 | 0.0 | 0.00 | 0.02 | 0.00 | 93 | 1011.4 |
| 20260505004114 | 54 | 252 | 0.0 | 0.0 | 0.00 | 0.02 | 0.00 | 93 | 1011.6 |
| 20260505003114 | 54 | 252 | 0.0 | 0.0 | 0.00 | 0.02 | 0.00 | 93 | 1011.7 |
| 20260505001114 | 54 | 252 | 0.0 | 0.0 | 0.00 | 0.02 | 0.00 | 93 | 1011.9 |
| 20260505000114 | 54 | 252 | 0.0 | 0.0 | 0.00 | 0.02 | 0.00 | 93 | 1011.9 |
| 20260504235113 | 54 | 252 | 0.0 | 0.0 | 0.00 | 0.02 | 0.00 | 93 | 1012.1 |
| 20260504233113 | 55 | 253 | 0.0 | 0.0 | 0.00 | 0.02 | 0.00 | 93 | 1012.4 |
| 20260504232113 | 55 | 253 | 0.0 | 0.0 | 0.00 | 0.02 | 0.00 | 93 | 1012.3 |
| 20260504231113 | 55 | 253 | 0.0 | 0.0 | 0.00 | 0.02 | 0.00 | 93 | 1012.3 |
| 20260504230113 | 55 | 252 | 0.0 | 0.0 | 0.00 | 0.02 | 0.00 | 93 | 1012.4 |
| 20260504225113 | 55 | 253 | 0.0 | 0.0 | 0.00 | 0.02 | 0.00 | 93 | 1012.5 |
| 20260504224113 | 55 | 249 | 0.0 | 0.0 | 0.00 | 0.02 | 0.00 | 93 | 1012.4 |
| 20260504223113 | 54 | 249 | 0.0 | 0.0 | 0.00 | 0.02 | 0.00 | 93 | 1012.4 |
| 20260504222113 | 54 | 249 | 0.0 | 0.0 | 0.00 | 0.02 | 0.00 | 92 | 1012.4 |
| 20260504221113 | 54 | 249 | 0.0 | 0.0 | 0.00 | 0.02 | 0.00 | 92 | 1012.4 |
| 20260504220112 | 55 | 249 | 0.0 | 0.0 | 0.00 | 0.02 | 0.00 | 92 | 1012.3 |
| 20260504215112 | 55 | 249 | 0.0 | 0.0 | 0.00 | 0.02 | 0.02 | 91 | 1012.5 |
| 20260504212112 | 56 | 249 | 0.0 | 0.0 | 0.00 | 0.02 | 0.02 | 91 | 1013.1 |
| 20260504211112 | 56 | 249 | 0.0 | 0.0 | 0.00 | 0.02 | 0.02 | 90 | 1013.2 |
| 20260504205112 | 57 | 249 | 0.0 | 0.0 | 0.00 | 0.02 | 0.02 | 90 | 1013.2 |
| 20260504204112 | 57 | 249 | 0.0 | 0.0 | 0.00 | 0.02 | 0.02 | 90 | 1013.3 |
| 20260504203112 | 58 | 45 | 0.0 | 0.0 | 0.00 | 0.02 | 0.02 | 90 | 1013.2 |
| 20260504202112 | 58 | 45 | 0.0 | 0.0 | 0.00 | 0.02 | 0.02 | 90 | 1013.2 |
| 20260504200112 | 58 | 46 | 0.0 | 0.0 | 0.00 | 0.02 | 0.02 | 89 | 1013.0 |
| 20260504195111 | 58 | 45 | 0.0 | 0.0 | 0.00 | 0.02 | 0.02 | 89 | 1013.0 |
| 20260504194111 | 58 | 45 | 0.0 | 0.0 | 0.00 | 0.02 | 0.02 | 89 | 1013.0 |
| 20260504191111 | 59 | 246 | 0.0 | 0.0 | 0.01 | 0.02 | 0.02 | 86 | 1012.8 |
| 20260504185111 | 59 | 246 | 0.0 | 0.0 | 0.01 | 0.02 | 0.02 | 86 | 1012.7 |
| 20260504184111 | 59 | 246 | 0.0 | 0.0 | 0.01 | 0.02 | 0.02 | 85 | 1012.7 |
| 20260504183111 | 59 | 246 | 0.0 | 0.0 | 0.02 | 0.02 | 0.02 | 85 | 1012.9 |
| 20260504182110 | 59 | 246 | 0.0 | 0.0 | 0.02 | 0.02 | 0.02 | 85 | 1012.8 |
| 20260504173110 | 60 | 246 | 0.0 | 0.0 | 0.01 | 0.01 | 0.01 | 82 | 1013.5 |
| 20260504172110 | 61 | 233 | 0.0 | 1.0 | 0.01 | 0.01 | 0.01 | 82 | 1013.6 |
| 20260504171110 | 61 | 202 | 0.0 | 5.0 | 0.01 | 0.01 | 0.01 | 81 | 1013.7 |
| 20260504170110 | 61 | 228 | 0.0 | 6.0 | 0.00 | 0.00 | 0.00 | 79 | 1013.6 |